Flag for Peru Weather past 2 weeks in Iquitos, Loreto, Peru

Now
75 °F

Passing clouds.


Feels Like: 74 °F
Forecast: 74 / 87 °F
Wind: No wind

Location: Iquitos Airport

Current Time: Mar 1, 2015 at 3:32:15 AM

Latest Report: Mar 1, 2015 at 3:00 AM


Visibility: N/A

Pressure: 29.83 "Hg

Humidity: 94%

Dew point: 73 °F

Location of IquitosLocation

Historic Weather in Iquitos — Graph

°F

Iquitos temperature yesterday

Maximum temperature yesterday: 88 °F (at 3:00 PM)
Minimum temperature yesterday: 73 °F (at 12:00 AM)
Average temperature yesterday: 79 °F

Past Weeks' High & Low Weather Summary

 TemperatureHumidityPressure
High93 °F (Feb 18, 3:00 PM)100% (Feb 16, 1:00 AM)30.07 "Hg (Feb 16, 1:00 AM)
Low73 °F (Feb 14, 7:00 AM)47% (Feb 21, 4:00 PM)29.65 "Hg (Feb 19, 4:00 PM)
Average80 °F84%29.82 "Hg
* Reported Feb 14 2:00 AM — Mar 1 2:00 AM, Iquitos, Weather by CustomWeather, © 2015

Note: Actual official high and low records may vary slightly from our data, if they occured in-between our weather recording intervals... More about our weather records

Advertising

Iquitos weather history for previous 24 hours

 ConditionsComfort  
Time TempWeatherWind HumidityBarometerVisibility
2:00 AM
Sun, Mar 1
75 °FPassing clouds.3 mph94%29.86 "HgN/A
1:00 AM75 °FPartly cloudy.No wind94%29.86 "HgN/A
12:00 AM77 °FPartly cloudy.No wind94%29.89 "HgN/A
11:00 PM
Sat, Feb 28
77 °FClear.No wind94%29.92 "Hg10 mi
10:00 PM77 °FClear.3 mph94%29.89 "Hg10 mi
9:00 PM77 °FClear.3 mph94%29.86 "Hg10 mi
8:00 PM77 °FClear.3 mph94%29.83 "Hg10 mi
7:00 PM79 °FPassing clouds.2 mph89%29.80 "HgN/A
6:00 PM81 °FPassing clouds.3 mph84%29.77 "HgN/A
5:00 PM86 °FPassing clouds.3 mph66%29.77 "HgN/A
4:00 PM88 °FScattered clouds.5 mph62%29.80 "HgN/A
3:00 PM88 °FPartly sunny.6 mph66%29.83 "HgN/A
2:00 PM84 °FPartly sunny.8 mph74%29.86 "HgN/A
1:00 PM84 °FPartly sunny.7 mph74%29.89 "HgN/A
12:00 PM82 °FPartly sunny.8 mph74%29.95 "HgN/A
11:00 AM84 °FBroken clouds.9 mph74%29.95 "HgN/A
10:00 AM84 °FBroken clouds.5 mph70%29.95 "HgN/A
9:00 AM77 °FBroken clouds.3 mph89%29.95 "HgN/A
8:00 AM77 °FScattered showers. Broken clouds.3 mph89%29.95 "HgN/A
7:00 AM75 °FBroken clouds.3 mph94%29.89 "HgN/A
6:00 AM73 °FFog.2 mph94%29.86 "Hg5 mi
5:00 AM75 °FPassing clouds.1 mph94%29.86 "Hg5 mi
4:00 AM75 °FPassing clouds.6 mph94%29.83 "Hg5 mi
3:00 AM73 °FDrizzle. Mostly cloudy.No wind94%29.86 "Hg5 mi
Weather by CustomWeather, © 2015

See weather overviewHow to use our weather pages